Station Historical Data
Daily Summary for August 13, 2017 Units:  Metric    English   Both
« Previous Day
Next Day »
Daily Weekly Monthly Yearly Custom
  High: Low: Average:
Temperature: 30.5 °C 22.4 °C 25.8 °C
Dew Point: 23.4 °C 21.2 °C 22.1 °C
Humidity: 93% 58% 81%
Wind Speed: 1.6km/h 0km/h 0km/h
Wind Gust: 4.8km/h - -
Wind- - SSW
Pressure: 1015.5 hPa 1012.8 hPa -
Precipitation: 0 mm    
Historical Graphs
 
 
Tabular Data for August 13, 2017
Time Temperature Dew Point Pressure Wind Wind Speed Wind Gust Humidity Rainfall Rate (Hourly) Conditions
00:00 24.2 °C 22.2 °C 1014.1 hPa Calm     89% 0 mm BKN
00:05 24.2 °C 22.2 °C 1014.1 hPa Calm     89% 0 mm BKN
00:10 24.2 °C 22.2 °C 1014.1 hPa Calm     89% 0 mm BKN
00:15 24.1 °C 22.2 °C 1014.1 hPa Calm     89% 0 mm OVC
00:20 24.1 °C 22.2 °C 1014.1 hPa Calm     89% 0 mm OVC
00:25 24.1 °C 22.1 °C 1013.8 hPa Calm     89% 0 mm OVC
00:30 24 °C 22.1 °C 1013.8 hPa Calm     89% 0 mm OVC
00:35 23.9 °C 22 °C 1013.8 hPa Calm     89% 0 mm OVC
00:40 23.9 °C 22 °C 1014.1 hPa Calm     89% 0 mm OVC
00:45 23.9 °C 21.9 °C 1014.1 hPa Calm     89% 0 mm OVC
00:50 23.8 °C 21.9 °C 1014.1 hPa Calm     89% 0 mm OVC
00:55 23.8 °C 21.9 °C 1013.8 hPa Calm     89% 0 mm OVC
01:00 23.8 °C 22.1 °C 1013.8 hPa Calm     90% 0 mm OVC
01:10 23.7 °C 21.9 °C 1013.8 hPa Calm     90% 0 mm OVC
01:15 23.7 °C 21.9 °C 1013.8 hPa Calm     90% 0 mm BKN
01:20 23.6 °C 21.9 °C 1013.8 hPa Calm     90% 0 mm BKN
01:25 23.6 °C 21.8 °C 1013.4 hPa Calm     90% 0 mm BKN
01:30 23.6 °C 21.8 °C 1013.4 hPa Calm     90% 0 mm BKN
01:35 23.5 °C 21.8 °C 1013.4 hPa Calm     90% 0 mm BKN
01:40 23.5 °C 21.8 °C 1013.4 hPa Calm     90% 0 mm BKN
01:45 23.5 °C 21.8 °C 1013.4 hPa Calm     90% 0 mm BKN
01:50 23.6 °C 21.8 °C 1013.4 hPa Calm     90% 0 mm BKN
01:55 23.6 °C 21.8 °C 1013.1 hPa Calm     90% 0 mm BKN
02:00 23.6 °C 21.6 °C 1013.1 hPa Calm     89% 0 mm BKN
02:10 23.6 °C 21.6 °C 1013.1 hPa Calm     89% 0 mm BKN
02:15 23.6 °C 21.6 °C 1013.1 hPa Calm     89% 0 mm BKN
02:20 23.5 °C 21.6 °C 1013.1 hPa Calm     89% 0 mm BKN
02:30 23.5 °C 21.8 °C 1013.1 hPa Calm     90% 0 mm BKN
02:35 23.5 °C 21.8 °C 1013.1 hPa Calm     90% 0 mm BKN
02:40 23.4 °C 21.7 °C 1013.1 hPa Calm     90% 0 mm BKN
02:45 23.4 °C 21.7 °C 1013.1 hPa Calm     90% 0 mm BKN
02:50 23.4 °C 21.7 °C 1013.1 hPa Calm     90% 0 mm BKN
02:55 23.4 °C 21.7 °C 1013.1 hPa Calm     90% 0 mm BKN
03:00 23.3 °C 21.6 °C 1013.1 hPa Calm     90% 0 mm BKN
03:05 23.3 °C 21.6 °C 1013.1 hPa Calm     90% 0 mm BKN
03:10 23.3 °C 21.6 °C 1013.1 hPa Calm     90% 0 mm BKN
03:15 23.2 °C 21.5 °C 1013.1 hPa Calm     90% 0 mm SCT
03:20 23.2 °C 21.4 °C 1013.1 hPa Calm     90% 0 mm SCT
03:25 23.1 °C 21.6 °C 1013.1 hPa Calm     91% 0 mm SCT
03:30 23.1 °C 21.5 °C 1013.1 hPa Calm     91% 0 mm SCT
03:40 23 °C 21.4 °C 1013.1 hPa Calm     91% 0 mm SCT
03:45 22.9 °C 21.4 °C 1013.1 hPa Calm     91% 0 mm SCT
03:50 22.9 °C 21.4 °C 1013.1 hPa Calm     91% 0 mm SCT
03:55 22.9 °C 21.4 °C 1013.1 hPa Calm     91% 0 mm SCT
04:00 22.9 °C 21.6 °C 1013.1 hPa Calm     92% 0 mm SCT
04:10 22.9 °C 21.5 °C 1013.1 hPa Calm     92% 0 mm SCT
04:15 22.9 °C 21.5 °C 1013.1 hPa Calm     92% 0 mm FEW
04:20 22.8 °C 21.4 °C 1013.1 hPa Calm     92% 0 mm FEW
04:25 22.8 °C 21.4 °C 1013.1 hPa Calm     92% 0 mm FEW
04:30 22.8 °C 21.4 °C 1013.1 hPa Calm     92% 0 mm FEW
04:40 22.7 °C 21.3 °C 1013.1 hPa Calm     92% 0 mm FEW
04:45 22.7 °C 21.3 °C 1012.8 hPa Calm     92% 0 mm FEW
04:50 22.7 °C 21.3 °C 1012.8 hPa Calm     92% 0 mm FEW
04:55 22.7 °C 21.3 °C 1012.8 hPa Calm     92% 0 mm FEW
05:00 22.6 °C 21.2 °C 1012.8 hPa Calm     92% 0 mm FEW
05:10 22.6 °C 21.2 °C 1012.8 hPa Calm     92% 0 mm FEW
05:15 22.6 °C 21.2 °C 1012.8 hPa Calm     92% 0 mm CLR
05:20 22.6 °C 21.4 °C 1012.8 hPa Calm   1.6 km/h 93% 0 mm CLR
05:30 22.7 °C 21.5 °C 1013.1 hPa Calm     93% 0 mm CLR
05:35 22.7 °C 21.5 °C 1013.1 hPa Calm     93% 0 mm CLR
05:40 22.7 °C 21.6 °C 1013.1 hPa Calm     93% 0 mm CLR
05:45 22.7 °C 21.5 °C 1013.1 hPa Calm     93% 0 mm CLR
05:50 22.7 °C 21.5 °C 1013.1 hPa Calm     93% 0 mm CLR
05:55 22.7 °C 21.5 °C 1013.1 hPa Calm     93% 0 mm CLR
06:00 22.6 °C 21.4 °C 1013.4 hPa Calm     93% 0 mm CLR
06:10 22.6 °C 21.4 °C 1013.4 hPa Calm     93% 0 mm CLR
06:15 22.6 °C 21.4 °C 1013.1 hPa Calm     93% 0 mm BKN
06:20 22.6 °C 21.4 °C 1013.1 hPa Calm     93% 0 mm BKN
06:25 22.6 °C 21.4 °C 1013.1 hPa Calm     93% 0 mm BKN
06:30 22.6 °C 21.4 °C 1013.4 hPa Calm     93% 0 mm BKN
06:40 22.6 °C 21.4 °C 1013.8 hPa Calm     93% 0 mm BKN
06:45 22.6 °C 21.4 °C 1013.8 hPa Calm     93% 0 mm BKN
06:50 22.5 °C 21.3 °C 1013.8 hPa Calm     93% 0 mm BKN
06:55 22.5 °C 21.3 °C 1014.1 hPa Calm     93% 0 mm BKN
07:00 22.4 °C 21.3 °C 1014.1 hPa Calm     93% 0 mm BKN
07:10 22.4 °C 21.2 °C 1014.1 hPa Calm     93% 0 mm BKN
07:15 22.4 °C 21.2 °C 1014.1 hPa Calm     93% 0 mm BKN
07:20 22.4 °C 21.2 °C 1014.1 hPa Calm     93% 0 mm BKN
07:25 22.4 °C 21.2 °C 1014.1 hPa Calm     93% 0 mm BKN
07:30 22.4 °C 21.2 °C 1014.1 hPa Calm     93% 0 mm BKN
07:35 22.4 °C 21.2 °C 1014.1 hPa Calm     93% 0 mm BKN
07:40 22.4 °C 21.3 °C 1014.1 hPa Calm     93% 0 mm BKN
07:45 22.5 °C 21.3 °C 1014.1 hPa Calm     93% 0 mm BKN
07:50 22.5 °C 21.3 °C 1014.1 hPa Calm     93% 0 mm BKN
08:00 22.6 °C 21.4 °C 1014.1 hPa Calm     93% 0 mm BKN
08:05 22.6 °C 21.4 °C 1014.1 hPa Calm     93% 0 mm BKN
08:10 22.6 °C 21.4 °C 1014.4 hPa Calm     93% 0 mm BKN
08:15 22.7 °C 21.5 °C 1014.4 hPa Calm     93% 0 mm BKN
08:20 22.7 °C 21.6 °C 1014.4 hPa Calm     93% 0 mm BKN
08:25 22.8 °C 21.6 °C 1014.4 hPa Calm     93% 0 mm BKN
08:30 22.8 °C 21.7 °C 1014.4 hPa Calm     93% 0 mm BKN
08:35 22.9 °C 21.7 °C 1014.4 hPa Calm     93% 0 mm BKN
08:40 22.9 °C 21.7 °C 1014.4 hPa Calm     93% 0 mm BKN
08:45 23.1 °C 21.9 °C 1014.4 hPa Calm     93% 0 mm BKN
08:50 23.1 °C 21.9 °C 1014.8 hPa Calm     93% 0 mm BKN
08:55 23.1 °C 21.8 °C 1014.8 hPa Calm     92% 0 mm BKN
09:00 23.2 °C 21.8 °C 1014.8 hPa Calm     92% 0 mm BKN
09:10 23.6 °C 22 °C 1014.8 hPa Calm     91% 0 mm BKN
09:15 23.7 °C 22.2 °C 1015.1 hPa Calm     91% 0 mm BKN
09:20 23.8 °C 22.1 °C 1015.1 hPa Calm   1.6 km/h 90% 0 mm BKN
09:25 24.1 °C 22.3 °C 1015.1 hPa Calm   1.6 km/h 90% 0 mm BKN
09:30 24.3 °C 22.2 °C 1014.8 hPa SW 1.6 km/h 1.6 km/h 88% 0 mm BKN
09:35 24.5 °C 22.2 °C 1014.8 hPa Calm   3.2 km/h 87% 0 mm BKN
09:40 24.7 °C 22.2 °C 1014.8 hPa Calm   1.6 km/h 86% 0 mm BKN
09:45 24.9 °C 22.6 °C 1014.8 hPa Calm     87% 0 mm BKN
09:50 25.1 °C 22.4 °C 1014.8 hPa Calm   1.6 km/h 85% 0 mm BKN
09:55 25.3 °C 22.8 °C 1014.8 hPa Calm     86% 0 mm BKN
10:00 25.6 °C 22.9 °C 1014.8 hPa Calm   1.6 km/h 85% 0 mm BKN
10:05 25.9 °C 23 °C 1014.8 hPa Calm   1.6 km/h 84% 0 mm BKN
10:10 26.1 °C 23 °C 1014.8 hPa Calm     83% 0 mm BKN
10:15 26.4 °C 23.1 °C 1015.1 hPa Calm   1.6 km/h 82% 0 mm BKN
10:20 26.6 °C 23 °C 1015.1 hPa Calm     81% 0 mm BKN
10:25 26.6 °C 23 °C 1015.1 hPa Calm   1.6 km/h 81% 0 mm BKN
10:30 26.6 °C 22.6 °C 1015.1 hPa Calm   1.6 km/h 79% 0 mm BKN
10:40 26.9 °C 23.2 °C 1015.1 hPa Calm   1.6 km/h 80% 0 mm BKN
10:45 27.1 °C 22.7 °C 1015.1 hPa Calm   3.2 km/h 77% 0 mm BKN
10:50 27.2 °C 22.8 °C 1015.1 hPa Calm     77% 0 mm BKN
10:55 27.2 °C 22.8 °C 1015.1 hPa Calm   1.6 km/h 77% 0 mm BKN
11:00 27.1 °C 22.4 °C 1015.1 hPa Calm   1.6 km/h 76% 0 mm BKN
11:05 27 °C 22.6 °C 1015.1 hPa Calm   1.6 km/h 77% 0 mm BKN
11:10 27.1 °C 22.7 °C 1015.1 hPa SW 1.6 km/h 3.2 km/h 77% 0 mm BKN
11:15 27.2 °C 22.8 °C 1015.1 hPa Calm   1.6 km/h 77% 0 mm BKN
11:20 27.3 °C 22.9 °C 1015.1 hPa Calm   1.6 km/h 77% 0 mm BKN
11:25 27.4 °C 22.6 °C 1015.1 hPa Calm   3.2 km/h 75% 0 mm BKN
11:30 27.5 °C 22.7 °C 1015.1 hPa Calm   1.6 km/h 75% 0 mm BKN
11:35 27.7 °C 22.9 °C 1015.1 hPa Calm     75% 0 mm BKN
11:40 27.9 °C 23.3 °C 1015.5 hPa Calm   1.6 km/h 76% 0 mm BKN
11:45 28.2 °C 22.9 °C 1015.5 hPa Calm   1.6 km/h 73% 0 mm BKN
11:50 28.4 °C 23.3 °C 1015.5 hPa Calm     74% 0 mm BKN
11:55 28.4 °C 23.1 °C 1015.5 hPa Calm   1.6 km/h 73% 0 mm BKN
12:00 28.6 °C 22.8 °C 1015.1 hPa Calm   1.6 km/h 71% 0 mm BKN
12:10 28.6 °C 22.4 °C 1015.1 hPa Calm   1.6 km/h 69% 0 mm BKN
12:15 28.7 °C 22.9 °C 1015.1 hPa Calm   1.6 km/h 71% 0 mm BKN
12:20 28.6 °C 22.6 °C 1015.1 hPa Calm   1.6 km/h 70% 0 mm BKN
12:25 28.6 °C 23.1 °C 1015.1 hPa Calm   1.6 km/h 72% 0 mm BKN
12:30 28.6 °C 22.6 °C 1015.1 hPa Calm     70% 0 mm BKN
12:35 28.7 °C 22.7 °C 1015.1 hPa Calm     70% 0 mm BKN
12:40 28.8 °C 22.5 °C 1015.1 hPa Calm     69% 0 mm BKN
12:45 28.8 °C 22.7 °C 1015.1 hPa Calm   1.6 km/h 70% 0 mm BKN
12:50 28.7 °C 22.9 °C 1015.1 hPa Calm     71% 0 mm BKN
12:55 28.9 °C 23.2 °C 1014.8 hPa Calm   3.2 km/h 71% 0 mm BKN
13:00 28.8 °C 22.3 °C 1014.8 hPa Calm   3.2 km/h 68% 0 mm BKN
13:10 28.8 °C 23.2 °C 1014.8 hPa Calm     72% 0 mm BKN
13:15 28.6 °C 23.1 °C 1014.8 hPa Calm   1.6 km/h 72% 0 mm BKN
13:20 28.6 °C 22.6 °C 1014.8 hPa Calm   3.2 km/h 70% 0 mm BKN
13:25 28.7 °C 23.2 °C 1014.8 hPa Calm   4.8 km/h 72% 0 mm BKN
13:30 29.1 °C 23 °C 1014.8 hPa Calm     70% 0 mm BKN
13:35 29.3 °C 23 °C 1014.8 hPa Calm     69% 0 mm BKN
13:40 29.4 °C 23.1 °C 1014.4 hPa Calm     69% 0 mm BKN
13:45 29.5 °C 23.4 °C 1014.4 hPa Calm     70% 0 mm BKN
13:50 29.6 °C 23 °C 1014.4 hPa Calm     68% 0 mm BKN
13:55 29.6 °C 22.6 °C 1014.4 hPa SW 1.6 km/h 3.2 km/h 66% 0 mm BKN
14:00 29.8 °C 22.2 °C 1014.4 hPa Calm     64% 0 mm BKN
14:10 29.7 °C 22.4 °C 1014.4 hPa Calm     65% 0 mm BKN
14:15 30 °C 23.4 °C 1014.4 hPa Calm     68% 0 mm BKN
14:20 30.2 °C 22.1 °C 1014.4 hPa Calm     62% 0 mm BKN
14:25 30.1 °C 22 °C 1014.1 hPa Calm   1.6 km/h 62% 0 mm BKN
14:30 30.1 °C 22.2 °C 1014.1 hPa Calm     63% 0 mm BKN
14:35 30 °C 22.7 °C 1014.1 hPa Calm   1.6 km/h 65% 0 mm BKN
14:40 29.8 °C 22.3 °C 1014.1 hPa Calm   3.2 km/h 64% 0 mm BKN
14:45 29.9 °C 22.9 °C 1014.1 hPa Calm     66% 0 mm BKN
14:50 29.9 °C 22.1 °C 1014.1 hPa Calm   1.6 km/h 63% 0 mm BKN
14:55 30 °C 22.7 °C 1013.8 hPa Calm   1.6 km/h 65% 0 mm BKN
15:00 30.1 °C 21.9 °C 1013.8 hPa Calm   3.2 km/h 62% 0 mm BKN
15:05 30.1 °C 22.3 °C 1013.8 hPa Calm   1.6 km/h 63% 0 mm BKN
15:10 30.2 °C 21.8 °C 1013.8 hPa Calm   3.2 km/h 61% 0 mm BKN
15:15 30.3 °C 21.7 °C 1013.8 hPa Calm   1.6 km/h 60% 0 mm BKN
15:20 30.4 °C 21.8 °C 1013.4 hPa Calm   1.6 km/h 60% 0 mm BKN
15:25 30.5 °C 21.8 °C 1013.4 hPa Calm   3.2 km/h 60% 0 mm BKN
15:30 30.5 °C 21.3 °C 1013.4 hPa Calm   1.6 km/h 58% 0 mm BKN
15:35 30.4 °C 22.6 °C 1013.4 hPa Calm   1.6 km/h 63% 0 mm BKN
15:40 30.4 °C 22.6 °C 1013.4 hPa Calm     63% 0 mm BKN
15:45 30.5 °C 22.4 °C 1013.1 hPa Calm   1.6 km/h 62% 0 mm BKN
15:50 30.4 °C 22.1 °C 1013.1 hPa East 1.6 km/h 3.2 km/h 61% 0 mm BKN
15:55 30.3 °C 21.9 °C 1013.1 hPa Calm   3.2 km/h 61% 0 mm BKN
16:00 30.3 °C 22.2 °C 1013.1 hPa Calm   1.6 km/h 62% 0 mm BKN
16:05 30.3 °C 21.7 °C 1013.1 hPa Calm   1.6 km/h 60% 0 mm BKN
16:10 30.4 °C 22.3 °C 1013.1 hPa Calm     62% 0 mm BKN
16:15 30.2 °C 21.6 °C 1013.1 hPa Calm   1.6 km/h 60% 0 mm BKN
16:20 30.1 °C 22.2 °C 1013.4 hPa Calm     63% 0 mm BKN
16:25 29.9 °C 22.1 °C 1013.4 hPa Calm   1.6 km/h 63% 0 mm BKN
16:30 29.8 °C 22.2 °C 1013.4 hPa Calm   1.6 km/h 64% 0 mm BKN
16:35 29.8 °C 21.7 °C 1013.4 hPa Calm   1.6 km/h 62% 0 mm BKN
16:40 29.8 °C 21.4 °C 1013.4 hPa Calm   1.6 km/h 61% 0 mm BKN
16:45 29.8 °C 22.6 °C 1013.4 hPa Calm   1.6 km/h 65% 0 mm BKN
16:50 29.6 °C 23.1 °C 1013.1 hPa Calm   1.6 km/h 68% 0 mm BKN
16:55 29.3 °C 23 °C 1013.1 hPa Calm   1.6 km/h 69% 0 mm BKN
17:00 29.2 °C 22.2 °C 1013.1 hPa Calm   1.6 km/h 66% 0 mm BKN
17:10 29.8 °C 22 °C 1013.1 hPa Calm   1.6 km/h 63% 0 mm BKN
17:15 30 °C 22.2 °C 1013.1 hPa Calm   3.2 km/h 63% 0 mm BKN
17:20 30.2 °C 22.1 °C 1013.1 hPa Calm   1.6 km/h 62% 0 mm BKN
17:25 30.2 °C 22.6 °C 1013.1 hPa Calm   1.6 km/h 64% 0 mm BKN
17:30 29.9 °C 23.1 °C 1013.1 hPa Calm   1.6 km/h 67% 0 mm BKN
17:40 29.1 °C 22.6 °C 1013.1 hPa Calm   1.6 km/h 68% 0 mm BKN
17:45 28.9 °C 22.6 °C 1013.1 hPa Calm     69% 0 mm BKN
17:50 28.8 °C 23 °C 1013.1 hPa Calm   3.2 km/h 71% 0 mm BKN
17:55 28.7 °C 22.4 °C 1013.1 hPa Calm   1.6 km/h 69% 0 mm BKN
18:00 28.7 °C 22.7 °C 1013.1 hPa Calm   1.6 km/h 70% 0 mm BKN
18:05 28.6 °C 22.6 °C 1012.8 hPa Calm   1.6 km/h 70% 0 mm BKN
18:10 28.3 °C 22.8 °C 1012.8 hPa Calm     72% 0 mm BKN
18:15 28.1 °C 22.8 °C 1012.8 hPa Calm   1.6 km/h 73% 0 mm BKN
18:20 27.8 °C 22.8 °C 1012.8 hPa Calm   1.6 km/h 74% 0 mm BKN
18:25 27.7 °C 22.6 °C 1012.8 hPa Calm   1.6 km/h 74% 0 mm BKN
18:30 27.6 °C 22.7 °C 1012.8 hPa Calm   1.6 km/h 75% 0 mm BKN
18:35 27.4 °C 22.6 °C 1012.8 hPa Calm   1.6 km/h 75% 0 mm BKN
18:40 27.3 °C 22.5 °C 1012.8 hPa Calm     75% 0 mm BKN
18:45 27.3 °C 22.7 °C 1012.8 hPa Calm   1.6 km/h 76% 0 mm BKN
18:50 27.3 °C 22.7 °C 1012.8 hPa Calm   1.6 km/h 76% 0 mm BKN
18:55 27.3 °C 22.7 °C 1013.1 hPa Calm     76% 0 mm BKN
19:00 27.3 °C 22.7 °C 1012.8 hPa Calm     76% 0 mm BKN
19:05 27.3 °C 22.7 °C 1013.1 hPa Calm     76% 0 mm BKN
19:10 27.3 °C 22.5 °C 1013.1 hPa Calm     75% 0 mm BKN
19:15 27.3 °C 22.7 °C 1013.1 hPa Calm   1.6 km/h 76% 0 mm SCT
19:20 27.3 °C 22.4 °C 1013.1 hPa Calm   1.6 km/h 75% 0 mm SCT
19:25 27.2 °C 22.3 °C 1013.1 hPa Calm     75% 0 mm SCT
19:30 27.1 °C 22.5 °C 1013.1 hPa Calm   1.6 km/h 76% 0 mm SCT
19:40 27 °C 22.4 °C 1013.1 hPa Calm     76% 0 mm SCT
19:45 26.9 °C 22.5 °C 1013.1 hPa Calm   1.6 km/h 77% 0 mm SCT
19:50 26.8 °C 22.4 °C 1013.1 hPa Calm   1.6 km/h 77% 0 mm SCT
19:55 26.8 °C 22.4 °C 1013.1 hPa Calm   1.6 km/h 77% 0 mm SCT
20:00 26.7 °C 22.6 °C 1013.1 hPa Calm   1.6 km/h 78% 0 mm SCT
20:10 26.6 °C 22.4 °C 1013.4 hPa Calm   1.6 km/h 78% 0 mm SCT
20:15 26.5 °C 22.3 °C 1013.4 hPa Calm     78% 0 mm BKN
20:20 26.4 °C 22.4 °C 1013.4 hPa Calm   1.6 km/h 79% 0 mm BKN
20:25 26.3 °C 22.4 °C 1013.4 hPa Calm     79% 0 mm BKN
20:30 26.3 °C 22.3 °C 1013.4 hPa Calm   1.6 km/h 79% 0 mm BKN
20:40 26.1 °C 22.2 °C 1013.4 hPa Calm     79% 0 mm BKN
20:45 26.1 °C 22.1 °C 1013.4 hPa Calm     79% 0 mm BKN
20:50 25.9 °C 22.2 °C 1013.4 hPa Calm     80% 0 mm BKN
20:55 25.9 °C 22.2 °C 1013.4 hPa Calm     80% 0 mm BKN
21:00 25.8 °C 22.3 °C 1013.8 hPa Calm     81% 0 mm BKN
21:05 25.7 °C 22.2 °C 1013.8 hPa Calm     81% 0 mm BKN
21:10 25.6 °C 22.1 °C 1013.8 hPa Calm     81% 0 mm BKN
21:15 25.6 °C 22.1 °C 1013.8 hPa Calm     81% 0 mm SCT
21:20 25.5 °C 22.2 °C 1013.8 hPa Calm     82% 0 mm SCT
21:25 25.4 °C 22.1 °C 1014.1 hPa Calm     82% 0 mm SCT
21:30 25.3 °C 22 °C 1014.1 hPa Calm     82% 0 mm SCT
21:40 25.2 °C 22.1 °C 1014.1 hPa Calm     83% 0 mm SCT
21:45 25.1 °C 22 °C 1014.1 hPa Calm     83% 0 mm SCT
21:50 25.1 °C 21.9 °C 1014.1 hPa Calm     83% 0 mm SCT
21:55 25 °C 21.9 °C 1014.4 hPa Calm     83% 0 mm SCT
22:00 24.9 °C 22.1 °C 1014.1 hPa Calm     84% 0 mm SCT
22:05 24.9 °C 22.2 °C 1014.4 hPa Calm     85% 0 mm SCT
22:15 24.7 °C 22.1 °C 1014.4 hPa Calm     85% 0 mm SCT
22:20 24.7 °C 22 °C 1014.4 hPa Calm     85% 0 mm SCT
22:25 24.6 °C 22.1 °C 1014.4 hPa Calm     86% 0 mm SCT
22:30 24.5 °C 22 °C 1014.8 hPa Calm     86% 0 mm SCT
22:35 24.4 °C 22.1 °C 1014.8 hPa Calm     87% 0 mm SCT
22:40 24.3 °C 22.1 °C 1014.8 hPa Calm     87% 0 mm SCT
22:45 24.3 °C 22 °C 1014.8 hPa Calm     87% 0 mm SCT
22:55 24.1 °C 21.8 °C 1014.8 hPa Calm     87% 0 mm SCT
23:00 24.1 °C 21.8 °C 1014.8 hPa Calm     87% 0 mm SCT
23:05 24 °C 21.7 °C 1014.8 hPa Calm     87% 0 mm SCT
23:10 23.9 °C 21.7 °C 1014.8 hPa Calm     87% 0 mm SCT
23:15 23.9 °C 21.8 °C 1014.8 hPa Calm     88% 0 mm SCT
23:20 23.9 °C 21.8 °C 1014.8 hPa Calm     88% 0 mm SCT
23:25 23.8 °C 21.6 °C 1014.8 hPa Calm     87% 0 mm SCT
23:30 23.8 °C 21.6 °C 1014.8 hPa Calm     87% 0 mm SCT
23:35 23.8 °C 21.7 °C 1014.8 hPa Calm     88% 0 mm SCT
23:40 23.8 °C 21.7 °C 1014.4 hPa Calm     88% 0 mm SCT
23:45 23.8 °C 21.7 °C 1014.4 hPa Calm     88% 0 mm SCT
23:50 23.8 °C 21.7 °C 1014.4 hPa Calm     88% 0 mm SCT
23:55 23.8 °C 21.4 °C 1014.4 hPa Calm     87% 0 mm SCT
Piedmont Bend
Compliments of Weather Underground - 2 mb